DW4771 Weather Reports


Display with metric or nautical units.
time (UTC)temp
F
wind
direction
speed
MPH
gust
MPH
rain 1hr
in
rain 24hr
in
rain mn
in
humidity
%
barometer
mb
20180424083537 69 142 2.0 4.0 0.00 0.00 0.00 53 1006.1
20180424081137 69 230 0.0 3.0 0.00 0.00 0.00 53 1006.4
20180424075537 68 201 2.0 5.0 0.00 0.00 0.00 55 1006.5
20180424073937 68 222 1.0 4.0 0.00 0.00 0.00 55 1006.5
20180424071537 65 320 3.0 9.0 0.00 0.00 0.00 54 1006.3
20180424061937 63 284 1.0 4.0 0.00 0.00 0.00 65 1006.1
20180424061137 62 307 1.0 4.0 0.00 0.00 0.00 66 1006.1
20180424060337 62 328 0.0 2.0 0.00 0.00 0.00 69 1006.1
20180424055537 62 332 1.0 4.0 0.00 0.00 0.00 69 1005.9
20180424053137 62 342 2.0 5.0 0.00 0.00 0.00 70 1005.9
20180424051537 61 356 2.0 4.0 0.00 0.00 0.00 71 1005.8
20180424045937 60 354 1.0 4.0 0.00 0.00 0.00 73 1005.8
20180424045137 60 344 2.0 5.0 0.00 0.00 0.00 73 1005.7
20180424044337 60 348 2.0 5.0 0.00 0.00 0.00 73 1005.7
20180424043537 60 350 3.0 6.0 0.00 0.00 0.00 73 1005.6
20180424042737 59 353 3.0 8.0 0.00 0.00 0.00 74 1005.6
20180424041937 59 326 1.0 6.0 0.00 0.00 0.00 75 1005.6
20180424041137 60 347 1.0 4.0 0.00 0.00 0.00 75 1005.6
20180424040337 60 321 1.0 4.0 0.00 0.00 0.00 75 1005.6
20180424035536 60 317 2.0 6.0 0.00 0.00 0.00 75 1005.5
20180424033937 60 321 3.0 6.0 0.00 0.00 0.00 76 1005.4
20180424033137 60 337 2.0 6.0 0.00 0.00 0.00 77 1005.4
20180424031536 60 322 3.0 7.0 0.00 0.00 0.00 77 1005.3
20180424030736 60 321 3.0 7.0 0.00 0.00 0.00 77 1005.1
20180424024336 59 277 2.0 5.0 0.00 0.00 0.00 80 1005.0
20180424023536 60 277 2.0 4.0 0.00 0.00 0.00 79 1005.0
20180424022737 60 292 2.0 8.0 0.00 0.00 0.00 79 1005.0
20180424021936 60 315 5.0 13.0 0.00 0.00 0.00 79 1004.9
20180424021137 60 314 5.0 13.0 0.00 0.00 0.00 82 1004.7
20180424014736 56 298 1.0 4.0 0.00 0.00 0.00 96 1004.6
20180424013936 56 260 0.0 2.0 0.00 0.00 0.00 95 1004.7
20180424013137 56 0 0.0 0.0 0.00 0.00 0.00 95 1004.6
20180424011536 56 0 0.0 0.0 0.00 0.00 0.00 95 1004.5
20180424010736 56 0 0.0 0.0 0.00 0.00 0.00 95 1004.5
20180424005936 56 0 0.0 1.0 0.00 0.00 0.00 94 1004.5
20180424005136 56 0 0.0 1.0 0.00 0.00 0.00 94 1004.4
20180424004336 56 0 0.0 2.0 0.00 0.00 0.00 94 1004.3
20180424003536 56 268 0.0 2.0 0.00 0.00 0.00 93 1004.2
20180424002736 56 260 0.0 2.0 0.00 0.00 0.00 93 1004.3
20180424001936 56 0 0.0 0.0 0.00 0.00 0.00 93 1004.1
20180424001136 56 0 0.0 0.0 0.00 0.00 0.00 92 1004.0
20180424000336 57 258 0.0 3.0 0.00 0.00 0.00 93 1003.8
20180423235536 57 281 0.0 2.0 0.00 0.00 0.00 93 1003.8
20180423234736 57 270 1.0 3.0 0.00 0.00 0.00 92 1003.8
20180423233136 57 0 0.0 1.0 0.00 0.00 0.00 92 1003.6
20180423232337 57 0 0.0 2.0 0.00 0.00 0.00 92 1003.8
20180423231536 58 0 0.0 1.0 0.00 0.00 0.00 92 1003.6
20180423230736 58 0 0.0 0.0 0.00 0.00 0.00 91 1003.5
20180423225136 58 0 0.0 2.0 0.00 0.00 0.00 91 1003.6
20180423224336 58 0 0.0 0.0 0.00 0.00 0.00 90 1003.7
20180423223536 58 0 0.0 0.0 0.00 0.00 0.00 90 1003.6
20180423222736 58 0 0.0 0.0 0.00 0.00 0.00 90 1003.6
20180423221936 58 0 0.0 0.0 0.00 0.00 0.00 90 1003.4
20180423221136 59 0 0.0 0.0 0.00 0.00 0.00 90 1003.3
20180423220336 59 0 0.0 2.0 0.00 0.00 0.00 91 1003.3
20180423215536 59 45 0.0 2.0 0.00 0.00 0.00 91 1003.4
20180423213136 59 247 1.0 4.0 0.00 0.00 0.00 91 1003.2
20180423212336 59 205 2.0 6.0 0.00 0.00 0.00 91 1003.3
20180423203536 60 222 2.0 4.0 0.00 0.00 0.00 91 1003.3
20180423202736 60 166 3.0 4.0 0.00 0.00 0.00 91 1003.2
20180423201936 60 150 2.0 4.0 0.00 0.00 0.00 91 1003.3
20180423201136 60 197 1.0 4.0 0.00 0.00 0.00 91 1003.2
20180423194736 61 169 2.0 4.0 0.00 0.00 0.00 92 1003.0
20180423192336 61 173 2.0 5.0 0.00 0.00 0.00 92 1002.9
20180423185936 61 147 4.0 8.0 0.00 0.00 0.00 91 1003.0
20180423185136 61 144 4.0 8.0 0.00 0.00 0.00 90 1003.0
20180423184336 61 154 4.0 8.0 0.00 0.00 0.00 90 1003.1
20180423183536 61 152 3.0 8.0 0.00 0.00 0.00 88 1002.9
20180423182736 61 157 2.0 7.0 0.00 0.00 0.00 87 1003.0
20180423181136 61 181 2.0 4.0 0.00 0.00 0.00 86 1002.8
20180423175536 62 158 1.0 4.0 0.00 0.00 0.00 83 1002.8
20180423174736 62 199 1.0 4.0 0.00 0.00 0.00 82 1002.7
20180423172336 63 12 3.0 9.0 0.00 0.00 0.00 79 1002.6
20180423170736 64 7 6.0 12.0 0.00 0.00 0.00 74 1002.5
20180423164336 66 347 10.0 20.0 0.00 0.00 0.00 68 1002.6
20180423162736 68 348 10.0 20.0 0.00 0.00 0.00 62 1002.4
20180423161936 70 341 10.0 21.0 0.00 0.00 0.00 56 1002.3
20180423160336 75 291 5.0 8.0 0.00 0.00 0.00 44 1001.2
20180423153936 75 0 0.0 1.0 0.00 0.00 0.00 52 1001.1
20180423151536 76 119 2.0 4.0 0.00 0.00 0.00 48 1001.1
20180423145936 75 337 2.0 5.0 0.00 0.00 0.00 45 1001.2
20180423144336 75 356 5.0 9.0 0.00 0.00 0.00 45 1001.3
20180423141136 78 248 5.0 14.0 0.00 0.00 0.00 40 1001.0
20180423135536 80 241 5.0 13.0 0.00 0.00 0.00 40 1001.0
20180423134736 80 227 5.0 14.0 0.00 0.00 0.00 42 1001.1
20180423132336 79 225 5.0 12.0 0.00 0.00 0.00 43 1001.2
20180423125936 80 232 6.0 17.0 0.00 0.00 0.00 41 1001.3
20180423124336 80 233 6.0 22.0 0.00 0.00 0.00 41 1001.3
20180423123536 80 257 6.0 22.0 0.00 0.00 0.00 41 1001.2
20180423122736 79 258 7.0 15.0 0.00 0.00 0.00 38 1001.2
20180423120336 80 239 5.0 14.0 0.00 0.00 0.00 35 1001.5
20180423115536 80 243 5.0 14.0 0.00 0.00 0.00 39 1001.6
20180423114735 79 220 5.0 16.0 0.00 0.00 0.00 39 1001.7
20180423113936 79 234 5.0 14.0 0.00 0.00 0.00 39 1001.6
20180423113135 79 266 4.0 15.0 0.00 0.00 0.00 40 1001.6
20180423112336 80 230 3.0 8.0 0.00 0.00 0.00 40 1001.6
20180423111535 80 208 3.0 9.0 0.00 0.00 0.00 44 1001.8
20180423105136 79 144 3.0 6.0 0.00 0.00 0.00 48 1002.1
20180423102735 77 151 3.0 6.0 0.00 0.00 0.00 50 1002.3
20180423101935 77 165 2.0 5.0 0.00 0.00 0.00 50 1002.2
20180423101136 76 224 2.0 4.0 0.00 0.00 0.00 50 1002.3
20180423095535 75 162 3.0 6.0 0.00 0.00 0.00 51 1002.6
20180423094736 74 257 1.0 5.0 0.00 0.00 0.00 53 1002.8
20180423093936 73 280 1.0 4.0 0.00 0.00 0.00 50 1002.8
20180423093136 72 34 2.0 6.0 0.00 0.00 0.00 52 1002.7
20180423090735 69 48 4.0 8.0 0.00 0.00 0.00 61 1002.9
20180423085935 69 45 5.0 11.0 0.00 0.00 0.00 61 1002.9